Location: Unspecified
(0.0000°N, 0.0000°E)
Time: 07:25:57
(UTC+00:00)

N. Korean satellite - Pass Details

Date: 28 July 2021
Orbit: 451 x 498 km, 97.2° (Epoch: 31 July)

Event Time Altitude Azimuth Distance (km) Brightness Sun altitude
Rises 04:26:15 0° 29° (NNE) 2,491 10.9 -23.6°
Reaches altitude 10° 04:28:31 10° 42° (NE) 1,610 10.1 -23.1°
Maximum altitude 04:31:27 26° 101° (E) 940 8.6 -22.4°
Drops below altitude 10° 04:34:22 10° 159° (SSE) 1,598 9.2 -21.7°
Enters shadow 04:34:28 10° 160° (SSE) 1,634 9.2 -21.7°
